Temp
-4 -5 -5 -5 -5 -5 -5 -6 -6 -6 -7 -6 -7 -7 -8 -8 -7 -7 -7 -7 -7 -7 -8 -8 -8 -8 -8 -8 -8 -8 -7 -7 -7 -7 -7 -7 -7 -7 -7 -7 -8 -8 -8
-5 -5 -5 -5 -5 -5 -6 -6 -6 -6 -7 -7 -7 -8 -8 -8 -8 -7 -7 -7 -7 -7 -7 -7 -7 -8 -8 -8 -8 -8 -7 -7 -7 -7 -7 -7 -7 -8 -7 -7 -8 -8 -8
-5 -5 -5 -5 -5 -6 -6 -6 -6 -7 -7 -7 -8 -8 -8 -8 -8 -7 -7 -7 -7 -7 -7 -8 -7 -7 -7 -8 -8 -8 -7 -7 -7 -7 -7 -7 -7 -7 -7 -7 -8 -8 -8
-4 -5 -5 -5 -6 -6 -7 -7 -7 -7 -7 -8 -8 -8 -8 -8 -7 -7 -7 -7 -7 -8 -8 -7 -7 -7 -7 -8 -8 -8 -8 -7 -7 -7 -6 -7 -7 -7 -7 -7 -7 -8 -8
-4 -5 -5 -5 -6 -7 -7 -7 -7 -7 -8 -8 -8 -8 -8 -8 -8 -7 -7 -7 -8 -8 -8 -8 -8 -8 -8 -8 -8 -8 -8 -8 -8 -7 -7 -7 -7 -7 -7 -7 -7 -7 -8
-5 -5 -6 -6 -6 -7 -7 -7 -7 -8 -8 -8 -8 -8 -8 -8 -8 -7 -7 -8 -8 -8 -8 -8 -8 -8 -8 -8 -8 -8 -9 -9 -9 -9 -8 -8 -7 -7 -7 -7 -8 -7 -8
-6 -6 -6 -6 -6 -7 -7 -7 -7 -7 -8 -8 -8 -8 -8 -7 -7 -7 -8 -8 -8 -8 -8 -8 -8 -8 -8 -8 -8 -8 -9 -9 -8 -9 -9 -8 -7 -7 -7 -7 -7 -7 -7
-5 -6 -7 -6 -7 -7 -7 -7 -7 -7 -7 -8 -8 -7 -7 -7 -7 -7 -8 -8 -8 -8 -8 -8 -8 -8 -8 -8 -8 -8 -8 -8 -9 -9 -9 -8 -8 -8 -7 -7 -7 -7 -7
-6 -6 -6 -6 -7 -7 -7 -7 -7 -7 -7 -7 -7 -7 -7 -7 -7 -7 -8 -8 -8 -8 -8 -7 -8 -8 -8 -8 -8 -9 -8 -8 -8 -8 -9 -9 -8 -8 -8 -8 -8 -8 -8
-6 -6 -6 -6 -7 -7 -7 -7 -7 -7 -7 -8 -8 -7 -7 -8 -7 -8 -7 -7 -7 -7 -7 -7 -7 -8 -8 -8 -8 -8 -8 -8 -8 -8 -8 -8 -9 -8 -8 -8 -8 -8 -8
-6 -6 -6 -6 -7 -7 -6 -6 -7 -7 -7 -7 -7 -7 -7 -7 -7 -6 -7 -7 -6 -6 -6 -7 -7 -7 -7 -7 -7 -8 -7 -7 -8 -8 -8 -8 -9 -10 -9 -9 -8 -8 -8
-5 -6 -6 -6 -7 -6 -6 -6 -7 -6 -7 -7 -7 -7 -7 -7 -7 -7 -7 -7 -7 -7 -7 -7 -7 -7 -7 -7 -7 -7 -7 -7 -7 -7 -7 -8 -8 -8 -9 -9 -9 -9 -8
-6 -6 -6 -6 -6 -6 -6 -7 -6 -6 -6 -6 -7 -7 -7 -7 -7 -7 -7 -7 -7 -7 -7 -7 -7 -7 -7 -7 -7 -7 -7 -7 -7 -7 -7 -7 -7 -8 -8 -9 -9 -9 -9
-6 -6 -6 -6 -6 -6 -6 -6 -6 -6 -6 -7 -7 -7 -7 -7 -7 -7 -7 -7 -7 -7 -7 -7 -7 -7 -8 -7 -7 -7 -7 -7 -7 -7 -7 -7 -7 -7 -7 -8 -8 -9 -9
-6 -6 -6 -6 -6 -6 -6 -7 -6 -6 -6 -7 -7 -6 -6 -7 -7 -7 -7 -7 -7 -7 -7 -7 -7 -7 -7 -7 -7 -7 -7 -8 -7 -7 -7 -7 -8 -7 -8 -8 -8 -8 -9
-6 -6 -6 -6 -6 -6 -6 -7 -6 -6 -6 -6 -7 -7 -6 -6 -7 -7 -7 -7 -7 -7 -7 -7 -7 -7 -7 -7 -7 -7 -7 -7 -7 -7 -7 -8 -8 -8 -8 -8 -8 -8 -8
-6 -6 -6 -6 -6 -6 -6 -6 -6 -6 -6 -6 -6 -6 -6 -6 -6 -7 -7 -7 -7 -7 -7 -7 -7 -7 -7 -7 -7 -7 -7 -7 -7 -7 -7 -7 -8 -8 -8 -8 -8 -8 -8
-6 -6 -5 -6 -6 -6 -6 -6 -6 -7 -7 -7 -6 -6 -6 -6 -6 -7 -7 -7 -7 -7 -7 -7 -7 -7 -7 -7 -7 -7 -7 -7 -7 -7 -8 -8 -8 -8 -8 -8 -8 -8 -8
-5 -5 -5 -5 -6 -6 -6 -6 -6 -6 -6 -6 -6 -6 -6 -6 -6 -6 -6 -7 -7 -7 -7 -7 -7 -7 -7 -7 -7 -7 -7 -7 -7 -7 -8 -8 -8 -8 -8 -8 -8 -8 -8
-5 -5 -5 -5 -5 -6 -6 -6 -6 -6 -6 -6 -6 -6 -6 -6 -7 -7 -7 -7 -7 -7 -7 -7 -7 -7 -7 -7 -7 -7 -7 -7 -7 -7 -8 -8 -8 -8 -8 -8 -8 -8 -8
-5 -5 -5 -5 -5 -5 -5 -6 -6 -6 -6 -6 -6 -6 -6 -7 -6 -7 -7 -7 -7 -7 -7 -7 -7 -7 -7 -7 -7 -7 -8 -8 -8 -8 -8 -8 -8 -8 -8 -8 -8 -8 -8
-4 -4 -5 -5 -5 -5 -5 -5 -6 -6 -6 -6 -6 -6 -6 -7 -7 -7 -7 -7 -7 -6 -6 -7 -7 -7 -7 -7 -7 -7 -8 -8 -8 -8 -8 -8 -8 -8 -8 -8 -8 -8 -8
-4 -4 -4 -5 -5 -4 -4 -5 -5 -5 -6 -6 -6 -6 -6 -7 -7 -7 -7 -6 -6 -6 -6 -7 -7 -7 -7 -7 -8 -8 -7 -8 -8 -8 -8 -8 -8 -8 -8 -8 -8 -8 -8
-4 -4 -4 -4 -5 -5 -4 -4 -5 -5 -6 -6 -6 -6 -6 -7 -7 -7 -6 -5 -6 -7 -7 -8 -8 -8 -8 -8 -8 -8 -8 -7 -8 -8 -8 -8 -8 -8 -8 -8 -8 -8 -8
-5 -5 -4 -4 -4 -5 -5 -4 -5 -5 -5 -6 -6 -6 -6 -6 -7 -6 -5 -6 -7 -7 -8 -7 -7 -8 -8 -7 -7 -8 -8 -8 -8 -8 -8 -8 -8 -8 -8 -8 -8 -9 -9
-6 -5 -6 -5 -4 -5 -5 -5 -5 -5 -5 -6 -6 -6 -6 -6 -6 -6 -6 -6 -7 -8 -8 -7 -7 -8 -8 -8 -8 -9 -9 -8 -8 -8 -8 -8 -8 -8 -8 -8 -8 -8 -9
Height
5897 5898 5899 5900 5901 5901 5900 5900 5901 5901 5902 5903 5902 5901 5901 5902 5903 5902 5901 5901 5901 5903 5904 5904 5902 5902 5901 5901 5900 5899 5898 5897 5897 5897 5896 5896 5896 5897 5898 5899 5900 5903 5905
5899 5899 5900 5900 5901 5901 5901 5902 5904 5904 5905 5903 5903 5903 5903 5904 5904 5903 5902 5902 5902 5903 5903 5903 5903 5903 5902 5902 5901 5900 5899 5899 5899 5898 5897 5898 5897 5898 5899 5900 5901 5902 5904
5901 5901 5902 5902 5903 5903 5904 5905 5906 5905 5905 5904 5904 5904 5905 5905 5905 5905 5904 5904 5903 5903 5903 5902 5902 5902 5903 5902 5902 5902 5902 5903 5903 5901 5899 5899 5899 5899 5900 5900 5902 5902 5903
5902 5903 5904 5904 5905 5906 5906 5907 5907 5906 5905 5905 5906 5906 5906 5906 5906 5906 5905 5905 5905 5903 5902 5902 5902 5902 5902 5903 5903 5904 5904 5904 5904 5903 5902 5900 5901 5901 5901 5901 5903 5904 5903
5905 5905 5905 5905 5906 5907 5907 5907 5907 5906 5906 5906 5906 5906 5906 5907 5907 5907 5907 5906 5906 5905 5904 5903 5903 5903 5903 5904 5905 5905 5905 5902 5899 5899 5901 5902 5902 5902 5902 5903 5903 5904 5904
5906 5906 5906 5907 5907 5908 5908 5908 5907 5906 5906 5907 5907 5907 5908 5909 5909 5908 5908 5908 5906 5906 5906 5905 5904 5903 5903 5905 5905 5906 5903 5900 5894 5896 5898 5902 5904 5903 5902 5903 5903 5904 5904
5907 5907 5908 5908 5908 5908 5908 5908 5907 5907 5908 5908 5908 5909 5909 5910 5909 5909 5909 5909 5908 5907 5907 5906 5906 5905 5905 5906 5907 5906 5903 5897 5892 5893 5897 5901 5904 5904 5903 5903 5903 5905 5906
5908 5908 5910 5910 5909 5908 5909 5909 5909 5909 5909 5910 5910 5910 5911 5911 5911 5911 5910 5911 5910 5909 5908 5908 5908 5908 5908 5909 5908 5905 5904 5901 5897 5900 5899 5901 5904 5905 5905 5904 5904 5906 5907
5909 5909 5911 5910 5910 5909 5909 5910 5911 5911 5911 5911 5912 5912 5912 5913 5913 5913 5912 5911 5911 5912 5910 5909 5908 5909 5909 5909 5910 5906 5903 5903 5903 5903 5899 5903 5906 5906 5907 5906 5906 5907 5908
5910 5911 5911 5911 5910 5910 5910 5912 5913 5914 5913 5913 5913 5913 5915 5915 5914 5915 5916 5915 5915 5915 5913 5912 5911 5911 5911 5910 5910 5908 5905 5903 5901 5901 5903 5904 5906 5906 5907 5906 5907 5907 5909
5911 5911 5911 5911 5911 5911 5912 5914 5915 5916 5915 5915 5915 5916 5916 5916 5917 5917 5917 5918 5918 5918 5916 5914 5914 5914 5914 5913 5912 5910 5908 5907 5905 5905 5904 5905 5905 5904 5906 5907 5906 5906 5907
5911 5912 5912 5913 5912 5913 5914 5916 5918 5918 5917 5918 5918 5918 5918 5918 5919 5919 5920 5921 5920 5921 5920 5918 5918 5918 5917 5917 5915 5913 5911 5910 5910 5908 5906 5905 5906 5905 5905 5903 5904 5905 5906
5912 5913 5913 5913 5914 5914 5916 5918 5919 5919 5920 5921 5921 5920 5921 5921 5922 5922 5923 5924 5924 5923 5924 5921 5921 5921 5919 5919 5918 5916 5915 5914 5911 5910 5909 5908 5906 5904 5903 5903 5903 5901 5905
5912 5913 5914 5914 5915 5916 5917 5919 5921 5921 5922 5922 5923 5923 5924 5925 5925 5925 5926 5926 5926 5926 5925 5923 5922 5921 5921 5921 5918 5917 5916 5915 5913 5911 5910 5909 5906 5905 5904 5903 5903 5903 5900
5912 5913 5914 5915 5916 5917 5918 5920 5922 5924 5923 5924 5926 5926 5926 5926 5927 5927 5928 5927 5927 5927 5926 5924 5922 5921 5922 5921 5919 5917 5916 5915 5913 5912 5911 5910 5907 5906 5905 5904 5903 5903 5903
5912 5914 5915 5916 5917 5918 5919 5920 5923 5924 5925 5925 5927 5928 5929 5929 5929 5930 5928 5928 5928 5927 5926 5924 5923 5923 5921 5919 5917 5917 5916 5915 5914 5912 5911 5910 5910 5908 5907 5906 5905 5904 5903
5912 5914 5917 5918 5918 5920 5920 5921 5923 5923 5925 5926 5927 5929 5930 5930 5930 5929 5929 5930 5930 5928 5926 5925 5924 5922 5921 5918 5916 5916 5915 5914 5913 5911 5911 5910 5910 5908 5907 5906 5905 5904 5903
5913 5916 5918 5919 5920 5921 5921 5922 5923 5924 5926 5928 5929 5928 5929 5930 5930 5931 5931 5930 5929 5926 5924 5923 5922 5921 5919 5918 5916 5915 5914 5913 5912 5910 5909 5908 5908 5907 5906 5904 5903 5902 5902
5914 5917 5918 5920 5921 5921 5923 5924 5924 5924 5926 5927 5930 5930 5929 5929 5929 5930 5930 5928 5927 5925 5923 5921 5919 5918 5917 5916 5915 5914 5913 5912 5911 5910 5909 5906 5906 5906 5905 5903 5902 5901 5901
5914 5917 5918 5919 5920 5922 5923 5924 5925 5925 5926 5927 5927 5928 5928 5928 5929 5929 5928 5927 5925 5923 5921 5919 5918 5916 5915 5914 5914 5912 5911 5911 5910 5909 5908 5907 5905 5904 5903 5903 5901 5900 5899
5914 5916 5916 5918 5920 5922 5923 5924 5925 5925 5926 5927 5928 5928 5928 5928 5928 5928 5926 5925 5923 5921 5919 5917 5914 5912 5912 5911 5910 5909 5908 5909 5908 5908 5907 5906 5904 5902 5902 5901 5900 5899 5899
5914 5915 5916 5917 5920 5921 5922 5924 5924 5926 5926 5927 5928 5927 5928 5928 5927 5926 5925 5923 5921 5919 5917 5915 5913 5911 5909 5908 5906 5905 5905 5906 5904 5904 5903 5903 5904 5902 5901 5899 5898 5897 5896
5912 5914 5917 5917 5918 5920 5922 5922 5923 5924 5926 5927 5927 5927 5928 5927 5926 5925 5924 5922 5919 5917 5916 5914 5911 5908 5906 5904 5902 5902 5901 5900 5901 5899 5900 5899 5899 5899 5899 5898 5896 5894 5894
5911 5913 5915 5917 5918 5919 5920 5921 5922 5923 5925 5925 5926 5926 5926 5925 5925 5923 5922 5920 5918 5917 5914 5912 5910 5907 5903 5899 5898 5898 5898 5898 5897 5897 5897 5894 5894 5894 5894 5893 5894 5892 5889
5908 5910 5911 5914 5916 5917 5919 5920 5921 5922 5923 5924 5924 5925 5924 5923 5922 5921 5920 5918 5917 5916 5914 5911 5907 5904 5899 5894 5893 5893 5894 5894 5894 5894 5893 5893 5891 5888 5889 5888 5886 5887 5887
5905 5907 5908 5909 5911 5914 5916 5918 5919 5920 5921 5921 5922 5922 5921 5920 5919 5918 5918 5917 5915 5914 5912 5909 5906 5902 5898 5892 5890 5890 5890 5890 5889 5888 5888 5888 5887 5887 5884 5881 5881 5881 5879
Wind_Speed
13 15 15 13 16 15 13 12 8 7 6 6 8 9 9 9 8 8 7 8 7 7 7 10 9 10 12 11 12 11 10 9 9 11 11 12 12 11 12 11 11 10 7
17 14 15 14 13 13 12 11 9 8 7 8 10 10 9 9 12 9 8 9 6 6 7 8 8 8 12 11 11 11 9 10 11 12 14 13 14 11 14 13 13 11 9
16 17 17 15 13 12 11 10 9 9 7 9 9 8 9 10 10 8 8 10 8 7 7 6 6 6 9 10 8 10 8 8 8 9 10 12 13 13 13 12 12 11 10
18 18 16 13 11 11 11 10 9 8 8 8 7 7 8 8 7 7 8 9 8 8 8 6 5 6 7 7 7 8 6 6 7 6 7 10 9 11 12 13 12 11 9
16 14 13 12 11 10 10 8 8 8 7 5 5 5 7 7 9 10 9 8 8 8 7 7 6 7 7 7 4 5 3 3 5 7 7 7 8 8 7 8 8 8 9
14 12 11 11 12 10 9 8 8 7 5 5 5 5 7 10 11 11 10 10 10 9 7 7 7 6 5 6 5 1 3 7 11 11 11 8 7 8 7 6 5 6 7
13 11 11 11 11 11 9 9 7 6 7 5 5 7 9 10 9 11 11 12 11 9 9 8 7 6 4 5 4 2 7 12 21 12 16 10 7 7 7 6 5 5 4
11 11 11 11 12 11 10 10 9 9 9 10 9 10 10 9 11 13 13 12 11 9 9 8 9 9 8 7 6 7 9 13 18 16 13 11 8 5 4 4 4 3 4
8 11 12 12 13 12 12 12 12 12 13 13 13 12 11 12 15 15 13 12 11 11 11 13 11 10 9 8 8 8 10 12 12 16 5 15 3 2 2 2 2 1 2
8 10 13 13 13 12 13 14 14 14 13 13 13 12 13 13 15 15 13 15 15 17 17 17 16 15 12 11 12 9 9 12 15 14 11 4 2 3 2 2 2 2 1
7 11 14 13 13 13 13 14 14 14 14 13 15 18 16 18 18 18 18 17 17 16 17 18 18 17 15 16 17 16 13 17 15 14 12 7 5 6 4 4 6 6 4
8 13 14 14 14 14 14 14 14 15 15 17 16 15 17 19 17 17 16 17 17 15 15 17 16 16 16 14 15 16 14 15 14 15 16 12 8 5 4 6 10 9 8
11 14 14 14 13 15 15 14 17 17 15 16 17 15 14 16 14 11 15 12 14 13 13 13 13 14 13 13 12 11 11 10 12 14 14 13 12 8 7 6 7 13 10
13 14 13 14 13 16 14 14 16 15 15 15 15 16 13 12 16 11 13 13 13 13 13 13 14 13 11 10 11 10 9 9 9 10 11 12 11 11 9 8 6 7 1
15 14 13 13 14 15 13 12 13 13 13 14 13 13 15 13 11 11 10 11 12 12 11 12 13 12 11 12 11 11 11 9 9 9 8 10 10 10 9 8 7 6 6
14 15 14 11 13 15 13 10 9 9 11 11 12 10 11 9 9 8 10 10 10 10 11 11 10 12 14 14 14 14 11 11 9 8 8 8 8 8 8 7 7 7 5
16 13 13 10 11 11 11 8 8 8 7 9 8 7 6 7 9 9 8 7 8 8 10 12 12 12 13 13 13 13 12 11 10 10 9 7 6 6 7 7 6 6 7
14 15 13 11 12 11 10 9 9 9 8 6 7 4 5 5 6 6 7 9 9 12 13 14 13 14 14 13 12 11 11 11 10 10 11 8 7 6 6 6 7 6 7
14 13 12 13 12 10 10 8 7 5 6 4 4 3 3 4 5 7 8 9 11 12 14 15 16 16 14 14 11 10 10 10 11 10 10 10 8 7 7 7 7 6 8
13 12 11 8 8 8 7 6 4 4 4 4 1 3 4 5 7 8 9 11 15 16 14 14 14 15 15 14 13 11 8 8 9 8 8 10 10 9 7 7 7 6 8
12 9 7 6 5 4 5 4 3 5 5 3 2 1 4 5 7 8 12 15 16 14 13 14 15 15 13 14 12 12 10 8 9 8 7 6 8 11 11 9 7 6 7
10 8 7 5 4 4 3 3 3 5 5 5 3 2 2 4 7 10 12 13 14 15 14 16 17 18 18 16 14 11 11 9 12 9 10 11 8 7 9 11 12 11 10
9 9 8 7 5 4 4 5 4 4 4 4 3 2 2 4 7 9 10 13 15 17 17 17 20 21 19 18 17 14 13 11 9 13 12 13 14 13 11 10 13 15 14
5 5 6 8 9 8 6 6 6 5 6 6 5 4 5 7 7 8 11 12 14 14 14 16 17 19 20 20 19 17 14 14 11 11 11 15 17 16 17 16 13 17 17
4 6 7 7 6 8 9 10 8 10 9 8 9 9 10 9 12 11 11 10 10 9 9 11 13 16 19 19 15 12 13 13 13 13 13 13 16 20 19 20 22 18 17
5 8 9 11 11 10 9 12 13 13 11 11 11 12 12 12 15 11 7 6 7 6 13 14 15 16 23 21 9 7 10 11 13 15 15 16 16 17 22 25 23 23 23
Wind_Direction
112 113 122 95 95 112 113 114 116 111 113 112 107 93 81 74 72 68 65 68 68 75 100 106 106 103 98 97 102 109 120 121 114 109 105 98 97 96 110 119 138 154 148
111 108 116 108 114 112 110 113 122 109 115 107 88 81 78 80 75 68 72 74 74 78 82 96 111 113 102 102 108 112 118 124 120 104 99 94 93 102 116 118 132 143 143
112 112 117 120 112 106 108 114 117 119 119 94 88 90 83 74 71 71 77 79 75 74 78 89 117 113 103 107 111 100 89 107 125 100 101 93 98 101 115 125 135 148 152
122 118 113 114 109 104 108 117 120 120 102 88 79 71 65 64 78 92 83 79 78 81 86 95 109 113 108 102 89 93 89 94 116 107 108 108 116 118 115 118 123 129 132
114 112 114 115 105 102 110 115 124 104 98 87 62 60 76 87 91 88 87 80 74 71 79 86 84 96 102 109 110 78 85 95 147 156 141 122 135 137 137 130 130 139 142
111 113 113 106 107 106 115 120 107 101 92 69 66 79 98 90 84 82 90 83 76 71 78 85 82 80 90 89 99 76 256 250 212 169 147 144 162 152 147 139 129 145 153
117 118 118 112 109 112 113 107 106 100 79 73 84 97 94 90 89 89 84 67 67 69 64 67 71 76 70 62 48 348 311 302 8 192 128 144 151 134 131 139 133 141 159
122 127 125 116 110 110 109 107 100 88 87 87 89 92 92 82 86 85 75 63 57 51 58 57 52 49 50 55 36 346 342 334 345 14 165 128 128 127 123 115 104 155 176
126 127 121 116 112 111 110 104 99 93 87 88 88 90 87 78 71 68 76 76 68 59 58 63 64 57 48 38 43 0 351 345 348 356 34 146 136 128 108 68 87 113 206
136 125 121 118 118 118 115 110 102 97 96 95 97 94 81 75 77 78 69 70 72 68 63 63 61 62 54 48 55 44 27 13 16 17 40 78 264 240 239 197 148 151 242
143 128 124 123 123 120 117 112 108 105 107 105 93 86 90 87 87 85 81 78 77 70 70 68 64 68 67 65 62 57 36 42 39 29 22 19 338 304 304 254 222 204 191
149 131 128 120 116 118 119 114 109 110 109 107 100 102 89 93 90 88 84 82 79 75 68 69 66 64 67 66 66 63 43 37 46 42 40 37 32 14 344 323 206 227 219
148 140 132 118 119 125 126 122 116 107 107 108 105 102 89 89 73 103 74 88 73 67 62 67 66 55 46 38 41 44 45 38 33 38 42 43 45 36 38 21 23 209 239
150 137 128 120 129 131 132 129 119 112 113 103 97 92 81 98 76 81 74 72 73 66 56 50 50 48 39 31 30 33 38 25 30 25 26 36 33 43 37 44 51 41 48
148 138 130 126 137 138 138 133 124 120 114 109 99 85 78 75 68 67 68 70 68 68 54 44 35 28 19 22 18 13 17 21 14 26 17 22 26 35 39 40 37 54 82
149 140 134 134 139 143 143 132 128 124 122 116 107 91 81 75 71 71 64 49 52 47 52 44 27 6 6 5 0 2 8 0 7 12 9 12 15 17 22 32 35 34 25
149 148 140 146 137 139 133 138 149 120 99 104 112 95 79 63 69 47 46 48 45 25 28 23 17 4 3 3 355 352 351 350 357 353 1 358 359 2 5 9 20 24 8
151 155 149 149 152 145 122 109 109 122 119 132 134 88 66 47 49 51 32 16 8 4 357 353 352 350 352 358 346 351 347 346 345 351 353 347 342 3 347 350 3 6 9
154 161 164 159 151 143 142 136 126 120 133 126 109 111 73 58 42 26 21 8 351 346 339 332 336 333 337 341 332 338 340 342 335 341 355 337 343 351 332 346 339 347 355
172 173 163 152 150 154 147 145 162 152 129 123 65 19 42 36 16 17 2 359 343 342 337 339 325 322 326 321 321 320 324 324 325 327 340 337 334 331 337 327 326 324 334
172 177 163 150 153 169 167 176 158 138 149 166 193 71 40 19 9 357 345 340 336 329 329 320 314 315 312 311 303 305 312 313 301 312 303 314 337 328 329 325 313 302 293
176 179 187 199 196 181 183 190 174 166 166 161 174 108 29 13 351 341 342 331 319 313 317 315 314 311 312 308 299 291 295 294 298 296 302 302 302 310 322 324 317 305 292
195 199 193 208 232 243 215 219 209 191 199 206 188 192 302 328 333 329 315 305 309 319 325 319 316 312 308 306 301 294 284 285 284 291 293 293 305 309 307 309 312 302 297
265 264 240 220 227 244 250 249 236 228 227 235 249 260 285 300 310 291 291 306 319 338 336 321 312 316 312 305 311 299 297 290 276 272 276 291 299 302 307 304 296 297 299
304 297 291 284 269 266 258 256 240 233 233 234 251 263 274 284 292 285 301 330 331 350 347 354 4 16 357 321 320 308 308 308 301 288 283 278 285 295 293 294 297 292 280
286 289 287 275 268 262 261 270 260 246 236 235 246 259 268 276 284 288 322 331 323 313 319 356 13 24 23 18 20 341 323 314 308 302 296 291 286 278 282 288 285 284 287